Regional Weather Roundup
Issued by NWS

Home | Current Version | Previous Version | Text Only | Print | Product List | Glossary Off
Versions: 1 2 3 4 5 6 7 8 9 10 11 12 13 14 15 16 17 18 19 20 21 22 23 24 25 26 27 28 29 30 31 32 33 34 35 36 37 38 39 40 41 42 43 44 45 46 47 48 49 50

000
ASUS43 KFSD 280102
RWRSD

WEATHER ROUNDUP FOR SOUTH DAKOTA
NATIONAL WEATHER SERVICE SIOUX FALLS SD
800 PM CDT FRI MAR 27 2015

NOTE: "FAIR" INDICATES FEW OR NO CLOUDS BELOW 12,000 FEET WITH NO
SIGNIFICANT WEATHER AND/OR OBSTRUCTIONS TO VISIBILITY.


SDZ001>005-009-010-012>017-280200-
NORTHWEST AND NORTH CENTRAL SOUTH DAKOTA

CITY           SKY/WX    TMP DP  RH WIND       PRES   REMARKS
BUFFALO          N/A     61  34  36 NW14      29.85R
FAITH            N/A     57  33  40 N10       29.88R
MOBRIDGE       CLOUDY    46  33  60 S5        29.89R
$$

SDZ012>016-024>037-041>051-057-063-072>074-280200-
SOUTHWEST AND SOUTH CENTRAL SOUTH DAKOTA

CITY           SKY/WX    TMP DP  RH WIND       PRES   REMARKS
RAPID CTY ARPT PTCLDY    62  35  36 N12       29.92S
PIERRE         CLEAR     40  32  73 SE13      29.90R
CUSTER         CLEAR     55  28  35 W12G20    30.02R
ELLSWORTH AFB  PTCLDY    63  36  37 N10       29.92R
PHILIP         CLEAR     59  32  36 NE3       29.88R
PINE RIDGE     MOCLDY    60  34  37 N5        29.94S
SPEARFISH      FAIR      59  32  36 NW12      29.97R
WINNER         FAIR      47  32  56 E13       29.90R
$$

SDZ004>011-016>023-039-040-280200-
NORTHEAST SOUTH DAKOTA

CITY           SKY/WX    TMP DP  RH WIND       PRES   REMARKS
ABERDEEN       CLOUDY    32  27  81 SE10      30.02R WCI  24
WATERTOWN      CLOUDY    30  24  78 SE7       30.01F WCI  23
SISSETON         N/A     29  28  96 SE8       30.07S WCI  21
$$

SDZ017-020-022-023-036>040-048>070-280200-
SOUTHEAST SOUTH DAKOTA

CITY           SKY/WX    TMP DP  RH WIND       PRES   REMARKS
SIOUX FALLS    CLOUDY    33  21  61 S12       30.05F WCI  24
HURON          CLOUDY    32  28  85 S10       29.99F WCI  24
MITCHELL       CLOUDY    35  27  72 S15       30.02S WCI  25
YANKTON        CLOUDY    34  27  75 SE13      30.03F WCI  25
$$

ABBREVIATIONS USED IN REMARKS
   TC - TEMPERATURE IN CELSIUS
  WCI - WIND CHILL INDEX
   HX - HEAT INDEX
  VSB - VISIBILITY




USA.gov is the U.S. government's official web portal to all federal, state and local government web resources and services.